INTELSAT 37E (IS-37E) (42950 NORAD) Tracking and Keplerian Element Data

This shows tracking and keplerian element data for the satellite.

Feedback or suggestion? Click here.




ElementValue
Catalog42950
NameINTELSAT 37E (IS-37E)
Epoch Orbit1843
Epoch Day269.3504963
Epoch Year2022
RAAN192.7675
Inclination0.0255
Eccentricity0.0002879
Argument of Perigee358.0092
Mean Anonmoly282.5289
Mean Motion1.00270324
Decay Rate-1.38E-06
L11 42950U 17059A 22269.35049630 -.00000138 00000+0 00000+0 0 9994
L22 42950 0.0255 192.7675 0002879 358.0092 282.5289 1.00270324 18435

Live tracking and technical data element details for INTELSAT 37E (IS-37E) (NORAD 42950). INTELSAT 37E (IS-37E) can be tracked NOW for your location showing map with azimuth and elevation plus other details from your city location.

Track the satellite on the map from your city or location and see movement details for azimuth, elevation, latitude, longitude, range, height, and movement on the map or in text.







IsCatalogInMostPopularTable: catalog: 42950, numindb: 1212
Update: records affected: 1



GetName: 42950 INTELSAT 37E (IS-37E)

Hit Count: updated at: Fri, 30 Sep 2022 03:05:26 GMT